Index of /20260430/WXO-DD/model_gdps/15km/00/065
Name Last modified Size Description
Parent Directory -
20260430T00Z_MSC_GDPS_AirTemp_AGL-120m_LatLon0.15_PT065H.grib2 2026-04-30 04:02 908K
20260430T00Z_MSC_GDPS_AirTemp_AGL-2m_LatLon0.15_PT065H.grib2 2026-04-30 04:02 1.0M
20260430T00Z_MSC_GDPS_AirTemp_AGL-40m_LatLon0.15_PT065H.grib2 2026-04-30 04:02 811K
20260430T00Z_MSC_GDPS_AirTemp_AGL-80m_LatLon0.15_PT065H.grib2 2026-04-30 04:02 800K
20260430T00Z_MSC_GDPS_Albedo_Sfc_LatLon0.15_PT065H.grib2 2026-04-30 04:02 244K
20260430T00Z_MSC_GDPS_ConvectivePrecip-Accum_Sfc_LatLon0.15_PT065H.grib2 2026-04-30 04:02 3.2M
20260430T00Z_MSC_GDPS_DewPointDepression_AGL-2m_LatLon0.15_PT065H.grib2 2026-04-30 04:02 767K
20260430T00Z_MSC_GDPS_DewPoint_AGL-2m_LatLon0.15_PT065H.grib2 2026-04-30 04:02 613K
20260430T00Z_MSC_GDPS_DownwardLongwaveRadiationFlux-Accum_Sfc_LatLon0.15_PT065H.grib2 2026-04-30 04:02 888K
20260430T00Z_MSC_GDPS_DownwardShortwaveRadiationFlux-Accum_Sfc_LatLon0.15_PT065H.grib2 2026-04-30 04:02 1.1M
20260430T00Z_MSC_GDPS_FreezingRain-Accum1h_Sfc_LatLon0.15_PT065H.grib2 2026-04-30 04:02 41K
20260430T00Z_MSC_GDPS_FreezingRain-Accum_Sfc_LatLon0.15_PT065H.grib2 2026-04-30 04:02 304K
20260430T00Z_MSC_GDPS_IcePellets-Accum1h_Sfc_LatLon0.15_PT065H.grib2 2026-04-30 04:02 8.2K
20260430T00Z_MSC_GDPS_IcePellets-Accum_Sfc_LatLon0.15_PT065H.grib2 2026-04-30 04:02 69K
20260430T00Z_MSC_GDPS_LatentHeatNetFlux_Sfc_LatLon0.15_PT065H.grib2 2026-04-30 04:02 533K
20260430T00Z_MSC_GDPS_NetLongwaveRadiationFlux-Accum_Sfc_LatLon0.15_PT065H.grib2 2026-04-30 04:02 948K
20260430T00Z_MSC_GDPS_NetShortwaveRadiationFlux-Accum_Sfc_LatLon0.15_PT065H.grib2 2026-04-30 04:02 1.1M
20260430T00Z_MSC_GDPS_O3MixingRatio_Sfc_LatLon0.15_PT065H.grib2 2026-04-30 04:50 1.9M
20260430T00Z_MSC_GDPS_O3_EAtm_LatLon0.15_PT065H.grib2 2026-04-30 04:50 2.5M
20260430T00Z_MSC_GDPS_PlanetaryBoundaryLayerHeight_Sfc_LatLon0.15_PT065H.grib2 2026-04-30 04:02 2.5M
20260430T00Z_MSC_GDPS_Precip-Accum1h_Sfc_LatLon0.15_PT065H.grib2 2026-04-30 04:02 3.2M
20260430T00Z_MSC_GDPS_Precip-Accum_Sfc_LatLon0.15_PT065H.grib2 2026-04-30 04:02 5.1M
20260430T00Z_MSC_GDPS_PrecipRate_Sfc_LatLon0.15_PT065H.grib2 2026-04-30 04:02 3.0M
20260430T00Z_MSC_GDPS_Pressure_MSL_LatLon0.15_PT065H.grib2 2026-04-30 04:02 831K
20260430T00Z_MSC_GDPS_Pressure_Sfc_LatLon0.15_PT065H.grib2 2026-04-30 04:02 1.1M
20260430T00Z_MSC_GDPS_RadiativeTemp_Sfc_LatLon0.15_PT065H.grib2 2026-04-30 04:02 492K
20260430T00Z_MSC_GDPS_Rain-Accum1h_Sfc_LatLon0.15_PT065H.grib2 2026-04-30 04:02 1.5M
20260430T00Z_MSC_GDPS_Rain-Accum_Sfc_LatLon0.15_PT065H.grib2 2026-04-30 04:02 3.9M
20260430T00Z_MSC_GDPS_RelativeHumidity_AGL-2m_LatLon0.15_PT065H.grib2 2026-04-30 04:02 1.1M
20260430T00Z_MSC_GDPS_Runoff-Accum_Sfc_LatLon0.15_PT065H.grib2 2026-04-30 04:02 145K
20260430T00Z_MSC_GDPS_SensibleHeatNetFlux_Sfc_LatLon0.15_PT065H.grib2 2026-04-30 04:02 636K
20260430T00Z_MSC_GDPS_Snow-Accum1h_Sfc_LatLon0.15_PT065H.grib2 2026-04-30 04:02 1.1M
20260430T00Z_MSC_GDPS_Snow-Accum_Sfc_LatLon0.15_PT065H.grib2 2026-04-30 04:02 2.0M
20260430T00Z_MSC_GDPS_SnowDepth_Sfc_LatLon0.15_PT065H.grib2 2026-04-30 04:02 1.7M
20260430T00Z_MSC_GDPS_SoilTemp_DBS-0to10cm_LatLon0.15_PT065H.grib2 2026-04-30 04:02 508K
20260430T00Z_MSC_GDPS_SoilTemp_Sfc_LatLon0.15_PT065H.grib2 2026-04-30 04:02 579K
20260430T00Z_MSC_GDPS_SoilVolumetricWaterContent_DBS-0to10cm_LatLon0.15_PT065H.grib2 2026-04-30 04:02 587K
20260430T00Z_MSC_GDPS_SoilVolumetricWaterContent_DBS-0to1cm_LatLon0.15_PT065H.grib2 2026-04-30 04:02 650K
20260430T00Z_MSC_GDPS_SpecificHumidity_AGL-120m_LatLon0.15_PT065H.grib2 2026-04-30 04:02 1.1M
20260430T00Z_MSC_GDPS_SpecificHumidity_AGL-2m_LatLon0.15_PT065H.grib2 2026-04-30 04:02 1.2M
20260430T00Z_MSC_GDPS_SpecificHumidity_AGL-40m_LatLon0.15_PT065H.grib2 2026-04-30 04:02 1.1M
20260430T00Z_MSC_GDPS_SpecificHumidity_AGL-80m_LatLon0.15_PT065H.grib2 2026-04-30 04:02 1.1M
20260430T00Z_MSC_GDPS_SpecificHumidity_Sfc_LatLon0.15_PT065H.grib2 2026-04-30 04:02 670K
20260430T00Z_MSC_GDPS_TotalCloudCover_Sfc_LatLon0.15_PT065H.grib2 2026-04-30 04:02 826K
20260430T00Z_MSC_GDPS_UVIndex-ClearSky_Sfc_LatLon0.15_PT065H.grib2 2026-04-30 04:50 1.0M
20260430T00Z_MSC_GDPS_UVIndex_Sfc_LatLon0.15_PT065H.grib2 2026-04-30 04:50 1.5M
20260430T00Z_MSC_GDPS_UpwardLongwaveRadiationFlux_NTAtm_LatLon0.15_PT065H.grib2 2026-04-30 04:02 841K
20260430T00Z_MSC_GDPS_WindDir_AGL-10m_LatLon0.15_PT065H.grib2 2026-04-30 04:02 1.3M
20260430T00Z_MSC_GDPS_WindDir_AGL-120m_LatLon0.15_PT065H.grib2 2026-04-30 04:02 1.3M
20260430T00Z_MSC_GDPS_WindDir_AGL-40m_LatLon0.15_PT065H.grib2 2026-04-30 04:02 1.4M
20260430T00Z_MSC_GDPS_WindDir_AGL-80m_LatLon0.15_PT065H.grib2 2026-04-30 04:02 1.4M
20260430T00Z_MSC_GDPS_WindDir_IsbL-0700_LatLon0.15_PT065H.grib2 2026-04-30 04:02 1.6M
20260430T00Z_MSC_GDPS_WindGust-Max_AGL-10m_LatLon0.15_PT065H.grib2 2026-04-30 04:02 2.2M
20260430T00Z_MSC_GDPS_WindGust-Min_AGL-10m_LatLon0.15_PT065H.grib2 2026-04-30 04:02 2.1M
20260430T00Z_MSC_GDPS_WindGust_AGL-10m_LatLon0.15_PT065H.grib2 2026-04-30 04:02 2.1M
20260430T00Z_MSC_GDPS_WindSpeed_AGL-10m_LatLon0.15_PT065H.grib2 2026-04-30 04:02 1.1M
20260430T00Z_MSC_GDPS_WindSpeed_AGL-120m_LatLon0.15_PT065H.grib2 2026-04-30 04:02 1.2M
20260430T00Z_MSC_GDPS_WindSpeed_AGL-40m_LatLon0.15_PT065H.grib2 2026-04-30 04:02 1.2M
20260430T00Z_MSC_GDPS_WindSpeed_AGL-80m_LatLon0.15_PT065H.grib2 2026-04-30 04:02 1.3M
20260430T00Z_MSC_GDPS_WindSpeed_IsbL-0700_LatLon0.15_PT065H.grib2 2026-04-30 04:02 1.5M
20260430T00Z_MSC_GDPS_WindU_AGL-10m_LatLon0.15_PT065H.grib2 2026-04-30 04:02 1.3M
20260430T00Z_MSC_GDPS_WindU_AGL-120m_LatLon0.15_PT065H.grib2 2026-04-30 04:02 1.0M
20260430T00Z_MSC_GDPS_WindU_AGL-40m_LatLon0.15_PT065H.grib2 2026-04-30 04:02 1.0M
20260430T00Z_MSC_GDPS_WindU_AGL-80m_LatLon0.15_PT065H.grib2 2026-04-30 04:02 1.0M
20260430T00Z_MSC_GDPS_WindU_IsbL-0700_LatLon0.15_PT065H.grib2 2026-04-30 04:02 1.2M
20260430T00Z_MSC_GDPS_WindV_AGL-10m_LatLon0.15_PT065H.grib2 2026-04-30 04:02 1.3M
20260430T00Z_MSC_GDPS_WindV_AGL-120m_LatLon0.15_PT065H.grib2 2026-04-30 04:02 1.0M
20260430T00Z_MSC_GDPS_WindV_AGL-40m_LatLon0.15_PT065H.grib2 2026-04-30 04:02 973K
20260430T00Z_MSC_GDPS_WindV_AGL-80m_LatLon0.15_PT065H.grib2 2026-04-30 04:02 1.0M
20260430T00Z_MSC_GDPS_WindV_IsbL-0700_LatLon0.15_PT065H.grib2 2026-04-30 04:02 1.2M